date,batt_volt,AirTemp_C,Solar_kW,RH,Manual_BP,StationID,WS_ms,PTemp,WS_15min_max,Prog_Sig,Solar_Raw,Bar_mbar,Solar_MJ,Max_WS_2min,Pressure_Raw,Rain_mm,WD_15min_ave,Max_AirTemp_1min,WindDir,WS_15min_med,WS_15min_ave,Elevation_Correction
2021-01-01T00:09:59Z,13.6029,2.52491,0.0,66.07821,0,1156,0,1.990173,0,43690,0.0,1015.334,0.0,0,1013.533,0,1.29895265875,2.593,1.301201,0,0,1.80078
2021-01-01T00:24:56Z,13.60257,2.458664,0.0,66.04681,0,1156,0,1.94725,0,43690,0.0,1015.334,0.0,0,1013.533,0,1.29909247324,2.493,1.325348,0,0,1.80078
2021-01-01T00:40:00Z,13.59165,2.253963,0.0,60.6828,0,1156,0,2.0331,0,43690,0.0,1015.334,0.0,0,1013.533,0,1.31018571749,2.424,1.301219,0,0,1.80078
2021-01-01T00:54:58Z,13.59131,2.117825,0.0,59.08713,0,1156,0,2.161877,0,43690,0.0,1015.334,0.0,0,1013.533,0,1.31476072186,2.186,1.325303,0,0,1.80078
2021-01-01T01:10:01Z,13.59124,1.744499,0.0,60.30892,0,1156,0,2.202545,0,43690,0.0,1016.22,0.0,0,1014.42,0,1.31099221764,1.846,1.301207,0,0,1.80078
2021-01-01T01:24:58Z,13.60259,1.337753,0.0,58.8503,0,1156,0,1.94725,0,43690,0.0,1016.22,0.0,0,1014.42,0,1.28837495859,1.44,1.277126,0,0,1.80078
2021-01-01T01:40:01Z,13.62068,1.105835,0.0,60.75925,0,1156,0,1.58577,0,43690,0.0,1016.22,0.0,0,1014.42,0,1.27579835295,1.174,1.253202,0,0,1.80078
2021-01-01T01:54:58Z,13.6267,1.208401,0.0,62.25388,0,1156,0,1.330475,0,43690,0.0,1016.22,0.0,0,1014.42,0,1.27147230766,1.242,1.301425,0,0,1.80078
2021-01-01T02:10:00Z,13.61565,1.242348,0.0,62.11811,0,1156,0,1.330475,0,43690,0.0,1016.953,0.0,0,1015.153,0,1.27831715881,1.344,1.277325,0,0,1.80078
2021-01-01T02:25:02Z,13.61565,1.072628,0.0,62.96671,0,1156,0,1.350807,0,43690,0.0,1016.953,0.0,0,1015.153,0,1.27633245882,1.039,1.277325,0,0,1.80078
2021-01-01T02:40:00Z,13.6267,0.461628,0.0,64.93548,0,1156,0,1.181362,0,43690,0.0,1016.953,0.0,0,1015.153,0,1.26149539639,0.665,1.253224,0,0,1.80078
2021-01-01T02:55:02Z,13.63776,0.2919083,0.0,59.80989,0,1156,0,0.8402176,0,43690,0.0,1016.953,0.0,0,1015.153,0,1.25067235294,0.394,1.253224,0,0,1.80078
2021-01-01T03:09:58Z,13.64882,-0.04753494,0.0,59.742,0,1156,0,0.4787369,0,43690,0.0,1017.931,0.0,0,1016.13,0,1.24466784612,0.054,1.277325,0,0,1.80078
2021-01-01T03:25:01Z,13.65435,-0.04753494,0.0,57.84112,0,1156,0,0.3092918,0,43690,0.0,1017.931,0.0,0,1016.13,0,1.24996357058,0.054,1.253224,0,0,1.80078
2021-01-01T03:40:03Z,13.64882,-0.1826668,0.0,52.37694,0,1156,0,0.3092918,0,43690,0.0,1017.931,0.0,0,1016.13,0,1.25493971766,-0.047,1.253244,0,0,1.80078
2021-01-01T03:55:04Z,13.64882,-0.4548378,0.0,51.52752,0,1156,0,0.2663651,0,43690,0.0,1017.931,0.0,0,1016.13,0,1.25564051173,-0.421,1.253225,0,0,1.80078
2021-01-01T04:10:01Z,13.66017,-0.9626579,0.0,54.72017,0,1156,0,-0.05218887,0,43690,0.0,1019.737,0.0,0,1017.936,0,1.23071989939,-0.7930001,1.205066,0,0,1.80078
2021-01-01T04:25:04Z,13.67139,-0.8925094,0.0,51.46437,0,1156,0,-0.4995194,0,43690,0.0,1019.737,0.0,0,1017.936,0,1.21809234119,-0.8930001,1.205135,0,0,1.80078
2021-01-01T04:40:02Z,13.68626,-1.18911,0.0,54.46428,0,1156,0,-0.8406678,0,43690,0.0,1019.737,0.0,0,1017.936,0,1.21386874556,-1.087,1.229521,0,0,1.80078
2021-01-01T04:55:06Z,13.69769,-1.35825,0.0,56.50252,0,1156,0,-1.159222,0,43690,0.0,1019.737,0.0,0,1017.936,0,1.20486025882,-1.256,1.181324,0,0,1.80078
2021-01-01T05:10:01Z,13.70875,-1.494061,0.0,56.43463,0,1156,0,-1.480034,0,43690,0.0,1020.388,0.0,0,1018.587,0,1.19705973057,-1.46,1.181324,0,0,1.80078
2021-01-01T05:25:03Z,13.71981,-1.561974,0.0,57.41935,0,1156,0,-1.757923,0,43690,0.0,1020.388,0.0,0,1018.587,0,1.19749114702,-1.494,1.205433,0,0,1.80078
2021-01-01T05:40:04Z,13.71981,-1.799328,0.0,58.71019,0,1156,0,-1.992886,0,43690,0.0,1020.388,0.0,0,1018.587,0,1.19366568236,-1.629,1.181335,0,0,1.80078
2021-01-01T05:55:05Z,13.72693,-2.03384,0.0,60.27722,0,1156,0,-2.141994,0,43690,0.0,1020.388,0.0,0,1018.587,0,1.19640701763,-1.898,1.181433,0,0,1.80078
2021-01-01T06:10:06Z,13.73317,-1.997128,0.0,59.67028,0,1156,0,-2.356625,0,43690,0.0,1021.268,0.0,0,1019.467,0,1.18844073526,-1.895,1.181519,0,0,1.80078
2021-01-01T06:25:07Z,13.7388,-2.132793,0.0,60.45168,0,1156,0,-2.483143,0,43690,0.0,1021.268,0.0,0,1019.467,0,1.18776458235,-2.031,1.181525,0,0,1.80078
2021-01-01T06:40:07Z,13.73977,-2.335121,0.0,61.9144,0,1156,0,-2.63451,0,43690,0.0,1021.268,0.0,0,1019.467,0,1.17771911176,-2.233,1.157456,0,0,1.80078
2021-01-01T06:55:08Z,13.74652,-2.398502,0.0,63.00883,0,1156,0,-2.826546,0,43690,0.0,1021.268,0.0,0,1019.467,0,1.17299217645,-2.263,1.181713,0,0,1.80078
2021-01-01T07:10:09Z,13.74107,-2.533978,0.0,61.88857,0,1156,0,-2.84914,0,43690,0.0,1023.171,0.0,0,1021.371,0,1.15944926323,-2.398,0.91644,0,0,1.80078
2021-01-01T07:25:09Z,13.72991,-2.466038,0.0,59.61276,0,1156,0,-2.677437,0,43690,0.0,1023.171,0.0,0,1021.371,0,0.9692134147,-2.398,0.9164401,0,0,1.80078
2021-01-01T07:40:08Z,13.72906,-2.572498,0.0,59.50362,0,1156,0,-2.526066,0,43690,0.0,1023.171,0.0,0,1021.371,0,0.869289827353,-2.539,0.7957589,0,0,1.80078
2021-01-01T07:55:08Z,13.74433,-2.845047,0.0,61.16643,0,1156,0,-2.697769,0,43690,0.0,1023.171,0.0,0,1021.371,0,0.779447399994,-2.777,0.7716275,0,0,1.80078
2021-01-01T08:10:08Z,13.75757,-2.976082,0.0,62.97463,0,1156,0,-3.020844,0,43690,0.0,1024.016,0.0,0,1022.215,0,0.745152116447,-2.976,0.723495,0,0,1.80078
2021-01-01T08:25:09Z,13.76873,-3.281261,0.0,65.0815,0,1156,0,-3.341656,0,43690,0.0,1024.016,0.0,0,1022.215,0,0.726198055304,-3.179,0.7235051,0,0,1.80078
2021-01-01T08:40:09Z,13.77979,-3.383156,0.0,64.77581,0,1156,0,-3.707657,0,43690,0.0,1024.016,0.0,0,1022.215,0,0.706623528261,-3.315,0.6752716,0,0,1.80078
2021-01-01T08:55:11Z,13.79086,-3.58696,0.0,66.33831,0,1156,0,-4.073654,0,43690,0.0,1024.016,0.0,0,1022.215,0,0.698395435904,-3.553,0.6993885,0,0,1.80078
2021-01-01T09:10:11Z,13.79245,-3.718544,0.0,66.85571,0,1156,0,-4.310875,0,43690,0.0,1024.17,0.0,0,1022.37,0,0.688931731784,-3.582,0.6753514,0,0,1.80078
2021-01-01T09:25:10Z,13.80343,-3.855118,0.0,68.14534,0,1156,0,-4.57069,0,43690,0.0,1024.17,0.0,0,1022.37,0,0.673222078254,-3.686,0.6994578,0,0,1.80078
2021-01-01T09:40:10Z,13.8038,-4.090858,0.0,68.35307,0,1156,0,-4.787578,0,43690,0.0,1024.17,0.0,0,1022.37,0,0.669251340058,-3.921,0.6512566,0,0,1.80078
2021-01-01T09:55:10Z,13.81676,-4.188294,0.0,70.09445,0,1156,0,-5.004463,0,43690,0.0,1024.17,0.0,0,1022.37,0,0.655531802338,-4.189,0.651338,0,0,1.80078
2021-01-01T10:10:10Z,13.81765,-4.288196,0.0,68.73927,0,1156,0,-5.178429,0,43690,0.0,1025.624,0.0,0,1023.823,0,0.660021445306,-4.186,0.6755001,0,0,1.80078
2021-01-01T10:25:10Z,13.81767,-4.424068,0.0,68.36558,0,1156,0,-5.307205,0,43690,0.0,1025.624,0.0,0,1023.823,0,0.660883840539,-4.322,0.6755009,0,0,1.80078
2021-01-01T10:40:10Z,13.82321,-4.559986,0.0,69.58883,0,1156,0,-5.417908,0,43690,0.0,1025.624,0.0,0,1023.823,0,0.657478098233,-4.594,0.6272508,0,0,1.80078
2021-01-01T10:55:13Z,13.82874,-4.6959,0.0,68.8413,0,1156,0,-5.612202,0,43690,0.0,1025.624,0.0,0,1023.823,0,0.653208162011,-4.594,0.6513759,0,0,1.80078
2021-01-01T11:10:11Z,13.82874,-4.593964,0.0,68.29763,0,1156,0,-5.765831,0,43690,0.0,1026.612,0.0,0,1024.811,0,0.650814834883,-4.594,0.6272508,0,0,1.80078
2021-01-01T11:25:12Z,13.83427,-4.593964,0.0,67.75397,0,1156,0,-5.853943,0,43690,0.0,1026.612,0.0,0,1024.811,0,0.650902844417,-4.594,0.6755009,0,0,1.80078
2021-01-01T11:40:13Z,13.83981,-4.865795,0.001450218,68.63742,0,1156,0,-5.91946,0,43690,0.1015152,1026.612,7.251088e-06,0,1024.811,0,0.651982799403,-4.696,0.6513759,0,0,1.80078
2021-01-01T11:55:13Z,13.84534,-5.001713,0.004834059,69.04517,0,1156,0,-6.050499,0,43690,0.3383842,1026.612,2.41703e-05,0,1024.811,0,0.639455261755,-4.866,0.6513759,0,0,1.80078
2021-01-01T12:10:15Z,13.85088,-5.102196,0.009668118,69.21794,0,1156,0,-6.247051,0,43690,0.6767683,1026.938,4.834059e-05,0,1025.138,0,0.631373151852,-5.001,0.651403,0,0,1.80078
2021-01-01T12:25:10Z,13.85261,-5.0308,0.01450218,68.2732,0,1156,0,-6.423275,0,43690,1.015153,1026.938,7.25109e-05,0,1025.138,0,0.638726331342,-4.997,0.651467,0,0,1.80078
2021-01-01T12:40:12Z,13.85322,-4.927811,0.0174032,68.47913,0,1156,0,-6.466202,0,43690,1.218224,1026.938,8.701601e-05,0,1025.138,0,0.641688362348,-4.928,0.6273571,0,0,1.80078
2021-01-01T12:55:14Z,13.8477,-4.791847,0.02030307,67.42565,0,1156,0,-6.445866,0,43690,1.421215,1026.938,0.0001015154,0,1025.138,0,0.643680217067,-4.758,0.6514868,0,0,1.80078
2021-01-01T13:10:15Z,13.84216,-4.452004,0.02272009,65.38657,0,1156,0,-6.335163,0,43690,1.590407,1028.088,0.0001136005,0,1026.287,0,0.65177065353,-4.418,0.6514868,0,0,1.80078
2021-01-01T13:25:12Z,13.82942,-4.18372,0.02465406,63.2052,0,1156,0,-6.116016,0,43690,1.725784,1028.088,0.0001232703,0,1026.287,0,0.65660843133,-4.047,0.6514213,0,0,1.80078
2021-01-01T13:40:14Z,13.82323,-3.914284,0.02658734,62.41946,0,1156,0,-5.874275,0,43690,1.861114,1028.088,0.0001329367,0,1026.287,0,0.667145153517,-3.846,0.6513777,0,0,1.80078
2021-01-01T13:55:14Z,13.81215,-3.710484,0.05849216,60.55048,0,1156,0,-5.634796,0,43690,4.094451,1028.088,0.0002924608,0,1026.287,0,0.674792152372,-3.643,0.6755014,0,0,1.80078
2021-01-01T14:10:15Z,13.80108,-3.200802,0.04978672,58.78358,0,1156,0,-5.35239,0,43690,3.485071,1029.222,0.0002489336,0,1027.421,0,0.6800426059,-3.099,0.6996265,0,0,1.80078
2021-01-01T14:25:16Z,13.77848,-2.351326,0.3228654,53.89061,0,1156,0,-4.636208,0,43690,22.60058,1029.222,0.001614327,0,1027.421,0,0.718216951646,-2.215,0.7720016,0,0,1.80078
2021-01-01T14:40:17Z,13.71381,-1.344189,0.3484388,57.81387,0,1156,0,-2.912399,0,43690,24.39072,1029.222,0.001742194,0,1027.421,0,0.820938446805,-1.65,0.8682271,0,0,1.80078
2021-01-01T14:55:14Z,13.65955,-1.220562,0.3202977,54.60362,0,1156,0,-1.138886,0,43690,22.42084,1029.222,0.001601489,0,1027.421,0,1.27232272712,-1.118,1.470698,0,0,1.80078
2021-01-01T15:10:16Z,13.61661,-0.2487755,0.389301,51.25905,0,1156,0,0.372551,0,43690,27.25107,1028.381,0.001946505,0,1026.58,0,1.10708655333,-0.418,0.8676697,0,0,1.80078
2021-01-01T15:25:19Z,13.58804,-0.6245041,0.4051297,51.05237,0,1156,0,1.565437,0,43690,28.35908,1028.381,0.002025648,0,1026.58,0,0.874152052952,-0.285,0.8917192,0,0,1.80078
2021-01-01T15:40:15Z,13.56924,0.7945976,0.4152243,49.58478,0,1156,0,2.480434,0,43690,29.0657,1028.381,0.002076122,0,1026.58,0,0.889064912957,0.998,0.9156723,0,0,1.80078
2021-01-01T15:55:17Z,13.55038,0.1428337,0.4252935,53.10527,0,1156,0,3.357021,0,43690,29.77054,1028.381,0.002126467,0,1026.58,0,0.927084616451,0.075,0.939607,0,0,1.80078
2021-01-01T16:10:17Z,13.53144,1.049141,0.427648,49.86962,0,1156,0,4.064167,0,43690,29.93536,1027.856,0.00213824,0,1026.055,0,0.933147674876,1.052,0.9634674,0,0,1.80078
2021-01-01T16:25:19Z,13.52362,0.671959,0.4281294,51.25548,0,1156,0,4.51376,0,43690,29.96905,1027.856,0.002140647,0,1026.055,0,0.942152711185,0.604,0.9392882,0,0,1.80078
2021-01-01T16:40:18Z,13.52355,1.214394,0.4252333,49.55904,0,1156,0,4.665127,0,43690,29.76633,1027.856,0.002126166,0,1026.055,0,0.932618233919,0.8070001,0.9633652,0,0,1.80078
2021-01-01T16:55:20Z,13.51803,1.587528,0.4175106,50.03394,0,1156,0,4.859424,0,43690,29.22574,1027.856,0.002087553,0,1026.055,0,0.939123686954,1.486,0.9633652,0,0,1.80078
2021-01-01T17:10:16Z,13.51251,1.112629,0.4054432,53.69744,0,1156,0,5.182495,0,43690,28.38103,1026.536,0.002027216,0,1024.736,0,0.955527188148,1.486,0.9392811,0,0,1.80078
2021-01-01T17:25:18Z,13.50698,1.587528,0.3953075,58.68387,0,1156,0,5.311276,0,43690,27.67153,1026.536,0.001976538,0,1024.736,0,0.947923043534,1.452,0.9392811,0,0,1.80078
2021-01-01T17:40:20Z,13.50698,1.451843,0.379862,62.04208,0,1156,0,5.245754,0,43690,26.59034,1026.536,0.00189931,0,1024.736,0,0.938147730585,1.452,0.9392811,0,0,1.80078
2021-01-01T17:55:17Z,13.51251,1.384003,0.3586168,65.19676,0,1156,0,5.05146,0,43690,25.10317,1026.536,0.001793084,0,1024.736,0,0.922464974533,1.621,0.9392811,0,0,1.80078
2021-01-01T18:10:18Z,13.51803,1.417923,0.3354562,67.29988,0,1156,0,4.793907,0,43690,23.48193,1026.374,0.001677281,0,1024.573,0,0.91264689649,1.554,0.915197,0,0,1.80078
2021-01-01T18:25:20Z,13.52355,1.113327,0.3132535,68.48829,0,1156,0,4.556682,0,43690,21.92774,1026.374,0.001566267,0,1024.573,0,0.900888778814,1.316,0.8911279,0,0,1.80078
2021-01-01T18:40:17Z,13.52977,0.9094658,0.3185628,69.09833,0,1156,0,4.29913,0,43690,22.2994,1026.374,0.001592814,0,1024.573,0,0.893969515389,0.9440001,0.8670364,0,0,1.80078
2021-01-01T18:55:20Z,13.53646,0.7446137,0.3108401,71.108,0,1156,0,4.041576,0,43690,21.75881,1026.374,0.0015542,0,1024.573,0,0.886728073461,0.7780001,0.8671376,0,0,1.80078
2021-01-01T19:10:22Z,13.55006,1.227848,0.1867987,69.90071,0,1156,0,3.612316,0,43690,13.07591,1027.792,0.0009339936,0,1025.991,0,0.873539290179,1.567,0.8914037,0,0,1.80078
2021-01-01T19:25:21Z,13.55577,1.296223,0.2350907,71.70002,0,1156,0,3.506134,0,43690,16.45635,1027.792,0.001175454,0,1025.991,0,0.872309588644,1.33,0.8914148,0,0,1.80078
2021-01-01T19:40:23Z,13.55577,0.4818382,0.1549556,69.42652,0,1156,0,3.357021,0,43690,10.84689,1027.792,0.0007747779,0,1025.991,0,0.867180776443,0.618,0.8914148,0,0,1.80078
2021-01-01T19:55:21Z,13.57235,0.4818382,0.08255057,70.17304,0,1156,0,2.970692,0,43690,5.77854,1027.792,0.0004127528,0,1025.991,0,0.852437441968,0.652,0.8432302,0,0,1.80078
2021-01-01T20:10:23Z,13.60171,0.01155853,0.01882987,70.96198,0,1156,0,2.310989,0,43690,1.318091,1027.854,9.414933e-05,0,1026.054,0,0.839852520526,0.147,0.8192358,0,0,1.80078
2021-01-01T20:25:20Z,13.62533,0.1183205,0.01689918,71.98897,0,1156,0,1.606102,0,43690,1.182943,1027.854,8.44959e-05,0,1026.054,0,0.829392301796,0.118,0.7952387,0,0,1.80078
2021-01-01T20:40:23Z,13.64322,-0.08156586,0.00531194,71.0453,0,1156,0,1.011921,0,43690,0.3718358,1027.854,2.65597e-05,0,1026.054,0,0.825489426462,0.02,0.819414,0,0,1.80078
2021-01-01T20:55:21Z,13.65435,-0.01359177,0.001448958,71.07941,0,1156,0,0.5013275,0,43690,0.1014271,1027.854,7.244792e-06,0,1026.054,0,0.82041374851,0.122,0.8194159,0,0,1.80078
2021-01-01T21:10:23Z,13.66025,-0.1141625,0.0,71.4211,0,1156,0,0.09692383,0,43690,0.0,1027.3,0.0,0,1025.499,0,0.818429394052,-0.047,0.8194418,0,0,1.80078
2021-01-01T21:25:25Z,13.67102,0.08876801,0.0,71.62346,0,1156,0,-0.2012978,0,43690,0.0,1027.3,0.0,0,1025.499,0,0.814754981162,0.157,0.8194266,0,0,1.80078
2021-01-01T21:40:22Z,13.67764,-0.4173775,0.0,63.41367,0,1156,0,-0.479187,0,43690,0.0,1027.3,0.0,0,1025.499,0,0.816305458551,-0.349,0.8194892,0,0,1.80078
2021-01-01T21:55:24Z,13.68635,-0.307663,0.0,62.23786,0,1156,0,-0.691555,0,43690,0.0,1027.3,0.0,0,1025.499,0,0.814056078236,-0.273,0.7955445,0,0,1.80078
2021-01-01T22:10:26Z,13.69216,-0.4754372,0.0,63.29363,0,1156,0,-0.9265175,0,43690,0.0,1026.901,0.0,0,1025.1,0,0.809756713496,-0.34,0.8196933,0,0,1.80078
2021-01-01T22:25:22Z,13.70322,-0.5432968,0.0,62.85228,0,1156,0,-1.138886,0,43690,0.0,1026.901,0.0,0,1025.1,0,0.808994995286,-0.441,0.8196943,0,0,1.80078
2021-01-01T22:40:26Z,13.70875,-0.4414291,0.0,64.10865,0,1156,0,-1.351257,0,43690,0.0,1026.901,0.0,0,1025.1,0,0.810618084099,-0.441,0.8196943,0,0,1.80078
2021-01-01T22:55:24Z,13.70322,-0.4414291,0.0,62.03734,0,1156,0,-1.416775,0,43690,0.0,1026.901,0.0,0,1025.1,0,0.808709865056,-0.374,0.8196943,0,0,1.80078
2021-01-01T23:10:26Z,13.70322,-0.5772552,0.0,62.95415,0,1156,0,-1.416775,0,43690,0.0,1027.56,0.0,0,1025.759,0,0.814447112339,-0.509,0.8196943,0,0,1.80078
2021-01-01T23:25:25Z,13.70322,-0.9507675,0.0,61.79965,0,1156,0,-1.480034,0,43690,0.0,1027.56,0.0,0,1025.759,0,0.810849689342,-0.951,0.7955856,0,0,1.80078
2021-01-01T23:40:28Z,13.70875,-1.358238,0.0,59.49065,0,1156,0,-1.651737,0,43690,0.0,1027.56,0.0,0,1025.759,0,0.81033445225,-1.222,0.8196943,0,0,1.80078
2021-01-01T23:55:27Z,13.71428,-1.867577,0.0,60.37351,0,1156,0,-1.864105,0,43690,0.0,1027.56,0.0,0,1025.759,0,0.810136415381,-1.698,0.7955856,0,0,1.80078
2021-01-02T00:10:24Z,13.72047,-2.103828,0.0,60.78328,0,1156,0,-2.141994,0,43690,0.0,1026.745,0.0,0,1024.944,0,0.809150663862,-1.934,0.7956158,0,0,1.80078
2021-01-02T00:25:24Z,13.73298,-2.235355,0.0,61.87696,0,1156,0,-2.399548,0,43690,0.0,1026.745,0.0,0,1024.944,0,0.799807243198,-2.269,0.7957066,0,0,1.80078
2021-01-02T00:40:25Z,13.74483,-2.606926,0.0,62.66142,0,1156,0,-2.63451,0,43690,0.0,1026.745,0.0,0,1024.944,0,0.796720599998,-2.403,0.7716354,0,0,1.80078
2021-01-02T00:55:25Z,13.75192,-2.636372,0.0,63.1785,0,1156,0,-2.84914,0,43690,0.0,1026.745,0.0,0,1024.944,0,0.792673454445,-2.636,0.8199618,0,0,1.80078
2021-01-02T01:10:29Z,13.75213,-2.703815,0.0,60.86954,0,1156,0,-2.998249,0,43690,0.0,1027.736,0.0,0,1025.935,0,0.791313591169,-2.636,0.7717388,0,0,1.80078
2021-01-02T01:25:27Z,13.75767,-3.145386,0.0,62.7038,0,1156,0,-3.084103,0,43690,0.0,1027.736,0.0,0,1025.935,0,0.791003902951,-3.043,0.771739,0,0,1.80078
2021-01-02T01:40:29Z,13.75767,-3.179352,0.0,63.17934,0,1156,0,-3.212879,0,43690,0.0,1027.736,0.0,0,1025.935,0,0.789613824371,-3.247,0.7958558,0,0,1.80078
2021-01-02T01:55:27Z,13.7632,-3.451092,0.0,63.72282,0,1156,0,-3.36425,0,43690,0.0,1027.736,0.0,0,1025.935,0,0.75732598683,-3.451,0.7476222,0,0,1.80078
2021-01-02T02:10:30Z,13.76873,-3.552994,0.0,63.85869,0,1156,0,-3.513359,0,43690,0.0,1026.679,0.0,0,1024.878,0,0.726484459384,-3.519,0.7235053,0,0,1.80078
2021-01-02T02:25:27Z,13.76873,-3.790764,0.0,64.16439,0,1156,0,-3.642136,0,43690,0.0,1026.679,0.0,0,1024.878,0,0.72521775562,-3.655,0.7476222,0,0,1.80078
2021-01-02T02:40:31Z,13.76873,-3.790268,0.0,64.74273,0,1156,0,-3.816097,0,43690,0.0,1026.679,0.0,0,1024.878,0,0.715136248188,-3.722,0.6993981,0,0,1.80078
2021-01-02T02:55:29Z,13.76873,-3.926613,0.0,66.23645,0,1156,0,-3.922283,0,43690,0.0,1026.679,0.0,0,1024.878,0,0.710522211842,-3.927,0.699389,0,0,1.80078
2021-01-02T03:10:32Z,13.77473,-4.027126,0.0,66.98632,0,1156,0,-4.05106,0,43690,0.0,1026.19,0.0,0,1024.389,0,0.706205271759,-4.027,0.7235337,0,0,1.80078
2021-01-02T03:25:29Z,13.78091,-4.160564,0.0,67.09278,0,1156,0,-4.116581,0,43690,0.0,1026.19,0.0,0,1024.389,0,0.702998578685,-4.025,0.7235829,0,0,1.80078
2021-01-02T03:40:31Z,13.7813,-4.261997,0.0,67.84106,0,1156,0,-4.225025,0,43690,0.0,1026.19,0.0,0,1024.389,0,0.696913941168,-4.194,0.6994729,0,0,1.80078
2021-01-02T03:55:33Z,13.78681,-4.330254,0.0,67.73855,0,1156,0,-4.333469,0,43690,0.0,1026.19,0.0,0,1024.389,0,0.693094532892,-4.194,0.6994668,0,0,1.80078
2021-01-02T04:10:30Z,13.79314,-4.363586,0.0,68.07947,0,1156,0,-4.419319,0,43690,0.0,1026.165,0.0,0,1024.365,0,0.688195686334,-4.329,0.6753592,0,0,1.80078
2021-01-02T04:25:33Z,13.79318,-4.431675,0.0,67.53566,0,1156,0,-4.484836,0,43690,0.0,1026.165,0.0,0,1024.365,0,0.688557238827,-4.296,0.6753565,0,0,1.80078
2021-01-02T04:40:33Z,13.79239,-4.296196,0.0,66.51575,0,1156,0,-4.527763,0,43690,0.0,1026.165,0.0,0,1024.365,0,0.687619256206,-4.228,0.6753488,0,0,1.80078
2021-01-02T04:55:32Z,13.79225,-4.261726,0.0,66.38078,0,1156,0,-4.484836,0,43690,0.0,1026.165,0.0,0,1024.365,0,0.687483091705,-4.227,0.6753582,0,0,1.80078
2021-01-02T05:10:34Z,13.79263,-4.297127,0.0,66.10636,0,1156,0,-4.439652,0,43690,0.0,1024.382,0.0,0,1022.581,0,0.685845811083,-4.195,0.6994502,0,0,1.80078
2021-01-02T05:25:35Z,13.7869,-4.294937,0.0,68.4885,0,1156,0,-4.439652,0,43690,0.0,1024.382,0.0,0,1022.581,0,0.678200425255,-4.329,0.6753726,0,0,1.80078
2021-01-02T05:40:35Z,13.78739,-4.261166,0.0,67.60482,0,1156,0,-4.439652,0,43690,0.0,1024.382,0.0,0,1022.581,0,0.673805447677,-4.261,0.6753687,0,0,1.80078
2021-01-02T05:55:36Z,13.78187,-4.227242,0.0,67.23104,0,1156,0,-4.353802,0,43690,0.0,1024.382,0.0,0,1022.581,0,0.676216571175,-4.057,0.6753679,0,0,1.80078
2021-01-02T06:10:33Z,13.78134,-4.26189,0.0,68.48672,0,1156,0,-4.245358,0,43690,0.0,1025.201,0.0,0,1023.4,0,0.675365302367,-4.092,0.675355,0,0,1.80078
2021-01-02T06:25:35Z,13.7754,-4.262646,0.0,68.11159,0,1156,0,-4.139172,0,43690,0.0,1025.201,0.0,0,1023.4,0,0.668977177064,-4.229,0.6753408,0,0,1.80078
2021-01-02T06:40:36Z,13.77526,-4.296799,0.0,69.87772,0,1156,0,-4.096245,0,43690,0.0,1025.201,0.0,0,1023.4,0,0.670229784115,-4.196,0.6753374,0,0,1.80078
2021-01-02T06:55:36Z,13.7811,-4.195057,0.0,69.74151,0,1156,0,-4.05106,0,43690,0.0,1025.201,0.0,0,1023.4,0,0.666398978796,-4.194,0.6753342,0,0,1.80078
2021-01-02T07:10:36Z,13.77562,-4.297672,0.0,70.52144,0,1156,0,-4.008137,0,43690,0.0,1023.696,0.0,0,1021.895,0,0.667228108758,-4.23,0.6512023,0,0,1.80078
2021-01-02T07:25:36Z,13.76953,-4.16299,0.0,70.04352,0,1156,0,-3.944878,0,43690,0.0,1023.696,0.0,0,1021.895,0,0.663392917701,-4.061,0.6752983,0,0,1.80078
2021-01-02T07:40:37Z,13.76878,-4.163864,0.0,70.95894,0,1156,0,-3.879356,0,43690,0.0,1023.696,0.0,0,1021.895,0,0.661529275281,-4.096,0.6511646,0,0,1.80078
2021-01-02T07:55:37Z,13.76875,-3.892552,0.0,69.7013,0,1156,0,-3.793507,0,43690,0.0,1023.696,0.0,0,1021.895,0,0.661945633584,-3.791,0.6511569,0,0,1.80078
2021-01-02T08:10:38Z,13.76873,-3.858684,0.0,70.07475,0,1156,0,-3.707657,0,43690,0.0,1023.092,0.0,0,1021.291,0,0.659667242335,-3.757,0.651155,0,0,1.80078
2021-01-02T08:25:38Z,13.7632,-3.586944,0.0,71.09378,0,1156,0,-3.599213,0,43690,0.0,1023.092,0.0,0,1021.291,0,0.664490176407,-3.519,0.651155,0,0,1.80078
2021-01-02T08:40:38Z,13.75767,-3.077435,0.0,72.11279,0,1156,0,-3.470432,0,43690,0.0,1023.092,0.0,0,1021.291,0,0.668320494695,-2.976,0.6752718,0,0,1.80078
2021-01-02T08:55:38Z,13.74661,-2.669827,0.0,72.6223,0,1156,0,-3.278397,0,43690,0.0,1023.092,0.0,0,1021.291,0,0.672576407046,-2.67,0.651155,0,0,1.80078
2021-01-02T09:10:38Z,13.74107,-2.737759,0.0,73.36959,0,1156,0,-3.020844,0,43690,0.0,1022.847,0.0,0,1021.046,0,0.67711604881,-2.636,0.6752718,0,0,1.80078
2021-01-02T09:25:39Z,13.74107,-2.669827,0.0,74.76226,0,1156,0,-2.84914,0,43690,0.0,1022.847,0.0,0,1021.046,0,0.672292678832,-2.67,0.6993887,0,0,1.80078
2021-01-02T09:40:40Z,13.73554,-2.059063,0.0,76.25552,0,1156,0,-2.611919,0,43690,0.0,1022.847,0.0,0,1021.046,0,0.675839004707,-1.99,0.6752604,0,0,1.80078
2021-01-02T09:55:40Z,13.72343,-1.891834,0.0,76.69183,0,1156,0,-2.33403,0,43690,0.0,1022.847,0.0,0,1021.046,0,0.687307070025,-1.892,0.699329,0,0,1.80078
2021-01-02T10:10:40Z,13.71665,-1.894962,0.0,76.85534,0,1156,0,-2.078735,0,43690,0.0,1021.143,0.0,0,1019.342,0,0.692335804684,-1.793,0.6751587,0,0,1.80078
2021-01-02T10:25:40Z,13.71471,-1.831593,0.0,78.10261,0,1156,0,-1.8867,0,43690,0.0,1021.143,0.0,0,1019.342,0,0.692556727062,-1.729,0.6750782,0,0,1.80078
2021-01-02T10:40:40Z,13.70879,-1.595699,0.0,80.50981,0,1156,0,-1.735329,0,43690,0.0,1021.143,0.0,0,1019.342,0,0.696189446445,-1.562,0.723264,0,0,1.80078
2021-01-02T10:55:41Z,13.70323,-1.697697,0.0,80.88306,0,1156,0,-1.58622,0,43690,0.0,1021.143,0.0,0,1019.342,0,0.696744577095,-1.562,0.6750441,0,0,1.80078
2021-01-02T11:10:41Z,13.70323,-1.595913,0.0,79.59255,0,1156,0,-1.480034,0,43690,0.0,1021.693,0.0,0,1019.892,0,0.699293397622,-1.562,0.7232599,0,0,1.80078
2021-01-02T11:25:42Z,13.6977,-1.528,0.0,78.4041,0,1156,0,-1.394184,0,43690,0.0,1021.693,0.0,0,1019.892,0,0.69858395823,-1.46,0.6991512,0,0,1.80078
2021-01-02T11:40:43Z,13.6977,-1.731735,0.0,78.03058,0,1156,0,-1.310589,0,43690,0.0,1021.693,0.0,0,1019.892,0,0.694754938806,-1.596,0.6750426,0,0,1.80078
2021-01-02T11:55:43Z,13.6977,-1.629868,0.001932317,78.26828,0,1156,0,-1.287998,0,43690,0.1352622,1021.693,9.661584e-06,0,1019.892,0,0.691067733506,-1.562,0.6750426,0,0,1.80078
2021-01-02T12:10:44Z,13.6977,-1.629868,0.004830792,78.33619,0,1156,0,-1.245071,0,43690,0.3381554,1019.736,2.415396e-05,0,1017.936,0,0.693053152918,-1.46,0.7232599,0,0,1.80078
2021-01-02T12:25:44Z,13.6977,-1.595913,0.01111082,76.29883,0,1156,0,-1.202145,0,43690,0.7777575,1019.736,5.555411e-05,0,1017.936,0,0.694613122925,-1.46,0.6991512,0,0,1.80078
2021-01-02T12:40:41Z,13.6977,-1.392178,0.01304314,76.80818,0,1156,0,-1.138886,0,43690,0.9130197,1019.736,6.521569e-05,0,1017.936,0,0.698865910624,-1.392,0.6991512,0,0,1.80078
2021-01-02T12:55:43Z,13.6977,-1.426132,0.01497546,76.53653,0,1156,0,-1.053036,0,43690,1.048282,1019.736,7.487728e-05,0,1017.936,0,0.705107474087,-1.392,0.7232599,0,0,1.80078
2021-01-02T13:10:40Z,13.68664,-1.494045,0.02946783,80.00002,0,1156,0,-0.9694442,0,43690,2.062748,1019.41,0.0001473392,0,1017.61,0,0.705998650305,-1.46,0.6991512,0,0,1.80078
2021-01-02T13:25:42Z,13.6977,-2.173164,0.03526352,81.79969,0,1156,0,-0.9265175,0,43690,2.468446,1019.41,0.0001763176,0,1017.61,0,0.703547500585,-2.071,0.6991512,0,0,1.80078